Theta_e
304 304 304 304 304 305 305 305 305 305 306 306 307 307 307 307 306 306 307 307 307 306 306 306 306 306 306 307 305 300 302 306 306 306 306 307 310 310 310 310 309 310 309 305 304 305 306 306 306 307 306 305 306 306 307 312 319 323 327 327 325 325 325 322 319 317 319 320 323 328 328 326 330 334 336 335 332 332 330 326 324 323 321 319 323 327 333 339
304 303 303 303 304 304 304 305 304 305 305 306 307 307 307 307 307 307 307 307 307 306 306 306 306 306 305 306 305 301 302 305 306 306 305 306 309 309 309 309 309 309 306 302 303 303 305 307 306 307 308 308 309 308 310 313 315 323 328 325 321 324 326 319 317 322 324 326 328 330 328 328 329 327 331 338 334 333 334 333 329 328 325 319 320 327 336 339
303 303 303 303 303 303 303 304 304 304 304 305 306 306 307 307 307 307 307 307 306 306 306 306 306 305 304 303 304 303 302 305 309 307 304 305 308 309 308 308 308 306 303 302 303 303 304 307 305 308 308 307 312 311 312 315 313 320 325 324 323 324 323 314 316 322 323 325 329 330 331 329 322 317 326 334 330 331 333 330 331 334 328 319 316 319 328 334
303 303 303 303 303 303 303 303 304 304 304 305 306 306 307 306 307 307 307 306 306 306 305 306 306 305 304 303 303 304 303 308 311 304 302 305 307 307 306 307 306 303 302 302 303 304 305 306 305 309 307 308 315 312 313 319 314 316 319 324 326 319 315 312 313 317 320 323 327 330 335 332 321 314 320 329 333 333 325 317 319 325 320 315 313 313 320 324
303 303 303 302 303 302 303 303 303 303 304 304 305 305 306 306 306 306 306 305 305 305 305 306 306 304 304 303 304 304 304 308 308 301 302 306 305 305 305 304 304 302 302 302 303 305 307 306 308 311 307 306 312 307 310 317 313 315 316 318 320 313 311 311 311 315 318 322 325 330 335 329 321 316 313 322 334 329 318 311 310 312 311 310 310 311 315 317
303 303 303 302 302 302 302 303 303 303 304 304 304 305 305 305 305 305 305 305 305 305 305 306 305 303 303 304 305 305 306 306 304 301 302 304 303 304 304 304 303 301 302 303 304 306 308 308 311 314 310 306 306 304 307 311 312 314 316 315 313 310 311 310 310 315 316 320 325 326 329 324 322 322 311 313 320 314 310 309 308 308 307 308 307 309 310 311
302 302 302 302 302 302 302 302 302 303 303 304 304 305 305 305 305 305 305 306 305 305 306 305 304 303 303 305 305 307 309 306 301 300 301 301 302 303 303 304 303 302 302 303 304 306 309 310 311 312 311 311 307 308 310 311 314 314 316 315 311 310 311 310 312 314 314 317 321 324 329 326 326 326 313 309 311 308 308 308 307 307 307 307 306 306 307 307
302 302 302 302 302 301 302 302 302 303 303 303 304 304 305 305 305 305 306 306 305 305 306 304 302 302 304 305 306 310 310 304 300 300 301 300 301 303 304 303 302 302 301 302 303 305 309 309 309 309 311 312 309 309 310 310 313 311 311 313 310 310 310 311 313 313 314 314 316 325 331 325 320 320 312 309 309 307 308 308 307 307 306 306 305 305 305 305
302 302 302 302 302 301 302 302 302 303 303 303 304 304 304 305 305 305 305 305 305 305 305 303 301 303 305 303 306 312 307 301 300 300 301 301 301 302 302 302 302 301 301 302 303 303 306 307 307 308 309 311 309 309 310 308 309 308 310 311 310 310 310 312 312 313 315 313 314 321 328 322 314 316 314 309 307 306 307 306 306 306 305 305 304 303 304 303
302 302 302 301 301 302 302 302 302 302 303 303 303 304 304 304 305 304 305 305 305 305 305 303 302 303 305 304 307 311 303 299 301 301 302 302 301 301 301 301 302 302 301 301 302 303 304 305 305 305 306 308 308 308 309 309 308 309 311 311 312 311 311 311 309 313 315 314 317 317 324 324 314 320 322 310 307 306 306 305 305 305 304 303 302 302 303 303
302 302 301 301 301 302 302 302 302 302 303 303 303 304 304 304 304 304 305 305 305 306 305 303 303 303 304 305 310 309 300 299 302 302 302 303 303 302 302 302 302 303 302 301 303 303 303 303 303 304 305 306 307 308 310 309 306 310 310 310 314 312 312 313 309 312 313 312 317 315 320 324 318 322 320 309 308 307 306 305 304 304 304 303 302 301 301 302
302 301 301 301 301 301 301 302 302 302 303 303 303 304 304 304 304 304 305 305 305 305 304 303 303 303 304 306 309 305 299 300 302 302 302 301 302 303 302 303 303 303 303 302 303 303 304 303 303 305 307 306 307 309 309 306 303 309 310 308 313 312 313 315 309 310 310 310 317 313 311 320 323 319 312 308 308 307 306 306 304 304 303 302 302 301 301 301
301 301 301 301 301 301 301 302 302 302 303 303 303 303 303 304 304 304 304 305 305 305 303 303 304 303 305 307 305 301 300 302 302 302 302 301 301 303 303 303 304 304 303 303 302 303 304 303 304 306 306 306 306 306 307 306 303 304 306 309 313 312 314 313 308 309 308 311 318 311 306 315 323 315 308 309 308 307 307 306 304 304 303 302 302 301 300 300
301 301 301 301 301 301 302 301 302 302 302 303 303 303 303 304 304 304 305 304 304 305 303 303 305 304 305 307 303 301 303 302 302 302 303 303 301 301 303 303 303 303 303 303 303 303 303 303 304 305 305 304 304 303 305 308 307 303 303 309 311 310 315 312 307 308 305 311 316 309 304 308 318 313 308 309 308 308 308 306 305 304 303 302 302 301 300 299
301 301 301 301 301 301 301 301 302 302 302 303 303 303 303 303 304 304 305 303 303 305 303 303 305 303 305 307 302 302 303 302 302 302 303 303 301 300 302 302 302 303 302 303 303 304 304 303 304 306 307 307 307 304 305 309 310 308 303 305 309 310 314 312 308 309 306 310 313 307 305 308 313 312 309 309 308 309 308 307 305 304 303 302 301 301 300 299
301 301 301 301 301 301 301 301 302 302 302 303 302 302 302 302 304 305 305 304 304 304 302 304 304 302 305 306 301 302 303 302 302 303 303 302 301 301 302 301 302 303 302 302 303 303 303 304 305 305 306 306 306 306 307 308 310 311 305 303 308 308 309 310 309 311 311 311 311 309 310 314 312 308 308 308 308 309 308 307 306 304 304 302 302 301 300 299
301 301 301 301 301 301 301 301 302 302 301 301 302 302 303 302 304 305 305 304 304 303 303 304 302 302 305 303 301 303 303 302 302 303 303 303 303 302 302 302 302 302 302 302 302 304 303 305 305 303 305 306 305 307 307 306 307 309 307 307 309 306 306 309 309 310 312 313 314 313 311 311 308 306 307 306 307 308 307 306 306 304 304 303 302 301 300 300
301 301 301 301 301 301 301 302 302 301 300 301 302 303 304 304 304 305 304 303 303 304 304 304 302 303 304 302 302 304 303 302 302 304 304 303 303 303 302 303 302 302 305 305 304 305 304 305 306 305 307 307 305 308 307 305 305 304 305 308 308 305 303 306 310 311 312 313 316 317 315 310 307 306 306 305 305 306 306 306 305 304 304 303 302 301 300 300
301 301 301 301 301 301 301 302 301 300 300 301 303 303 304 304 304 305 303 303 305 306 306 304 304 305 303 302 303 303 302 302 303 304 303 302 302 302 302 302 303 303 305 306 305 305 305 307 308 305 304 304 303 304 304 305 304 302 305 306 303 303 302 304 310 313 312 313 316 317 316 314 310 307 307 306 306 306 306 305 304 303 304 303 303 302 300 299
301 301 301 301 301 301 301 302 301 300 301 303 302 303 306 306 306 306 304 304 305 305 305 305 304 304 302 303 304 302 302 303 304 304 302 302 302 303 303 303 306 306 305 305 303 304 305 306 306 304 303 303 302 302 301 303 303 302 304 304 301 301 302 304 309 314 311 310 315 315 314 315 313 310 308 306 305 306 307 305 304 303 303 303 303 302 301 300
301 301 301 301 301 301 302 301 300 301 302 303 302 303 305 305 304 305 304 305 303 301 303 304 303 303 302 303 303 301 302 303 304 303 302 302 302 304 304 304 306 307 305 304 302 304 305 304 305 305 304 302 302 302 301 302 303 304 303 301 301 302 302 303 307 312 311 307 311 314 312 313 313 311 308 305 305 306 307 307 306 304 304 303 303 303 302 300
301 301 301 301 301 301 301 300 299 301 302 302 302 302 303 302 301 301 301 303 304 301 302 303 302 303 302 303 303 302 303 305 304 303 302 302 303 304 304 305 305 305 306 304 303 306 306 303 306 306 304 302 302 303 303 302 301 303 302 299 301 303 302 304 307 311 311 306 309 312 311 311 311 311 308 304 305 305 305 306 307 306 305 304 303 303 302 301
301 301 301 301 301 301 301 300 300 302 302 302 302 302 301 301 301 301 300 304 306 304 304 304 304 306 305 303 303 303 304 304 304 304 302 302 305 304 304 305 306 305 305 304 303 304 304 304 306 305 303 302 303 304 305 304 303 302 301 299 301 301 299 303 308 310 310 305 306 311 309 308 308 308 307 304 303 304 303 304 305 305 305 304 303 303 302 301
300 300 301 301 301 301 301 302 302 303 301 301 302 302 301 302 301 301 302 305 307 305 304 304 303 306 307 303 302 304 304 303 303 304 302 302 304 304 304 304 304 305 304 304 304 303 304 304 303 304 304 302 302 305 305 304 305 304 302 300 301 301 299 300 302 303 307 306 306 308 306 307 309 308 307 305 302 302 302 301 302 302 302 302 303 303 302 301
300 300 301 301 301 301 302 303 303 302 301 301 302 301 301 302 301 301 303 305 306 305 304 302 303 305 305 302 302 302 303 303 303 303 302 302 303 304 305 304 303 305 304 303 303 302 304 304 301 302 304 303 302 304 304 302 303 304 304 302 301 301 300 301 301 300 305 306 305 306 304 308 312 308 307 307 304 304 303 301 302 301 301 301 301 302 302 301
300 300 300 301 301 301 303 304 302 302 303 302 302 302 301 301 301 300 303 309 311 307 304 303 305 305 303 303 304 302 303 304 302 302 303 302 302 302 304 304 302 303 303 302 302 302 302 303 302 302 301 302 302 303 303 303 302 303 303 303 303 303 303 304 303 302 305 305 303 304 303 307 309 305 306 307 307 307 304 301 302 301 300 300 300 300 301 301
300 300 300 301 301 301 303 304 303 303 303 303 302 301 300 301 301 299 303 310 308 304 303 303 304 304 303 303 302 302 303 303 302 302 303 302 302 301 303 304 303 302 302 302 303 303 302 303 305 304 302 301 301 302 304 303 303 304 303 303 304 305 304 306 304 302 305 304 303 304 303 304 304 303 304 305 305 305 303 301 300 299 300 300 300 299 300 300
300 300 300 301 301 301 301 301 303 303 302 303 301 301 301 300 301 301 307 307 301 301 304 305 304 303 303 302 302 303 302 301 303 303 301 302 302 301 303 303 302 303 301 301 304 302 300 303 304 303 304 303 302 303 304 302 302 305 304 302 303 304 303 304 303 303 304 303 303 303 304 304 303 304 305 304 303 303 302 302 301 299 299 299 299 300 299 299
300 301 300 300 301 302 300 300 302 302 302 302 300 301 301 299 300 303 307 304 300 301 303 304 304 303 302 302 302 303 302 301 303 302 300 302 302 301 303 303 302 304 302 300 303 302 300 302 302 301 303 303 303 304 302 301 302 303 302 302 304 305 304 304 304 304 304 303 302 302 303 304 303 303 303 303 303 303 302 302 302 301 299 298 299 299 299 299
300 300 300 301 302 302 302 301 302 302 302 301 301 300 300 300 304 306 303 300 300 300 300 303 304 303 303 302 301 301 301 301 301 301 301 301 302 301 301 302 302 303 302 300 302 301 300 300 301 301 302 302 303 303 302 302 302 302 303 304 306 305 304 305 304 303 303 302 300 300 302 303 302 301 300 301 303 302 302 302 302 301 300 299 298 298 299 299
300 300 300 302 302 302 302 302 302 303 301 301 300 299 300 302 307 309 299 297 301 300 301 303 303 304 303 300 300 300 300 301 301 302 302 301 302 303 302 302 302 302 302 303 303 301 300 302 301 301 302 301 301 301 302 303 301 303 305 305 305 303 304 304 303 302 303 301 299 301 302 302 301 300 298 299 300 300 300 301 302 302 302 300 298 298 299 299
300 300 300 301 302 302 302 302 303 301 300 301 300 300 304 305 306 307 299 297 302 304 302 302 301 303 303 299 302 302 299 300 301 302 303 301 301 303 302 303 303 302 304 305 303 302 303 302 299 301 302 301 300 301 302 303 302 303 304 304 303 302 302 303 302 301 301 300 300 301 301 300 300 299 298 299 299 299 299 299 300 301 302 302 299 298 298 299
299 300 300 300 301 301 301 302 301 300 301 301 300 302 308 307 306 306 302 298 300 300 300 301 300 301 301 300 302 301 298 300 300 300 301 300 301 301 300 301 302 302 304 304 302 303 306 301 297 301 303 301 301 302 302 303 302 303 303 304 304 302 302 303 301 300 300 301 302 301 299 300 302 301 300 299 298 299 298 298 299 300 301 302 301 298 298 298
299 300 300 300 300 300 302 302 300 301 301 300 303 305 304 307 309 305 302 302 299 299 301 301 300 300 299 300 300 299 299 300 299 299 299 300 302 302 301 301 301 301 303 303 302 303 307 305 302 303 303 301 301 301 303 304 303 303 303 303 304 303 303 303 301 302 302 302 302 300 301 303 304 304 305 303 301 300 299 299 299 299 300 301 301 298 297 298
300 300 300 301 300 299 301 300 300 301 300 302 306 305 303 309 310 303 305 305 301 301 301 299 300 301 302 302 301 297 298 299 299 300 301 302 303 304 303 302 301 302 302 303 303 301 303 306 304 302 300 301 302 302 302 304 304 302 301 302 303 303 303 302 302 303 303 302 302 301 303 304 303 302 303 303 302 301 300 299 299 299 300 302 301 299 297 298
301 300 301 302 300 299 299 299 300 300 301 304 307 307 309 310 303 302 305 304 301 302 300 298 300 302 304 305 302 298 297 298 299 300 302 302 303 303 303 302 301 301 302 303 304 303 304 306 304 301 301 301 303 303 302 303 305 303 301 303 303 302 303 303 302 301 301 302 303 303 303 302 301 302 302 302 303 303 302 301 300 299 300 302 301 299 297 297
301 299 300 302 301 299 298 299 300 300 301 304 305 307 311 305 299 304 305 300 301 302 300 299 299 300 303 304 303 301 299 298 298 301 303 303 302 303 303 303 300 300 302 302 304 304 304 306 305 303 303 301 301 302 302 303 304 304 303 304 304 303 303 304 303 303 303 303 303 302 302 301 301 303 305 305 306 305 304 303 302 300 300 302 301 299 298 297
301 299 300 302 301 298 298 299 300 300 302 304 306 308 306 301 300 304 303 300 301 302 301 301 298 298 302 302 302 301 298 299 300 301 303 304 303 303 304 304 301 300 302 301 302 304 303 305 306 303 302 302 301 302 303 303 303 303 303 303 304 304 305 304 303 304 304 303 303 302 302 302 302 303 304 305 305 306 307 306 305 302 301 301 300 299 298 297
302 301 301 301 299 298 298 300 300 301 302 303 309 310 304 302 301 301 301 300 300 301 302 303 299 297 300 303 303 300 297 300 302 301 302 303 303 302 302 303 301 300 301 300 301 303 303 304 305 303 302 303 303 302 303 304 303 303 304 304 304 305 305 305 304 305 305 304 304 304 304 304 304 304 305 306 307 309 309 308 307 305 301 301 300 299 298 297
302 303 302 299 297 298 299 300 301 303 304 303 307 306 300 301 301 299 300 299 299 298 300 303 300 297 300 301 300 299 298 299 301 301 301 301 303 303 301 301 301 301 300 300 301 302 303 303 304 304 305 306 305 303 303 304 304 304 304 304 305 305 305 305 304 305 306 306 306 306 305 305 304 308 309 309 309 309 309 306 305 305 303 301 301 299 298 297
302 304 302 297 298 300 299 300 302 303 305 305 305 302 299 300 301 300 299 298 298 297 298 302 301 299 301 300 298 299 300 301 300 300 300 301 302 302 301 301 301 300 300 300 301 302 303 303 303 304 304 305 306 303 302 303 303 304 304 303 304 304 305 305 304 304 305 305 305 306 305 305 305 311 313 311 309 307 306 303 302 304 304 302 301 299 298 297
302 305 302 297 299 300 298 301 302 300 303 305 303 300 300 300 299 300 298 296 297 297 297 299 299 300 302 300 299 299 301 302 300 299 300 300 300 301 300 300 301 300 301 302 301 300 302 303 304 304 303 303 305 305 305 304 303 304 304 304 304 304 304 304 303 305 306 306 305 306 307 306 308 314 314 310 307 304 303 301 300 303 304 302 301 299 298 297
303 303 299 297 300 299 298 302 302 299 300 302 299 297 298 299 299 298 297 296 295 296 298 298 297 298 298 297 298 298 299 301 300 300 301 300 300 301 300 300 300 300 301 302 301 300 302 303 303 304 303 302 303 304 305 304 304 305 305 305 305 304 303 303 303 305 307 307 306 308 309 307 309 314 311 307 306 305 305 303 301 301 302 301 300 298 297 297
303 300 296 297 300 298 298 302 305 305 303 301 298 297 297 297 298 298 298 297 295 296 298 298 296 296 296 296 296 295 296 298 298 299 299 299 299 298 298 299 300 300 302 303 303 302 302 303 303 304 305 304 305 306 306 304 305 305 306 305 305 303 303 303 303 305 306 307 307 308 310 308 308 312 310 308 310 310 308 305 301 301 300 298 298 297 296 295
300 299 297 297 298 298 299 301 303 306 306 303 301 300 298 297 298 298 299 299 297 297 298 297 295 295 295 295 295 295 296 295 295 297 296 296 298 296 296 298 300 301 301 302 303 302 302 303 303 305 305 305 307 309 309 307 306 305 306 306 305 305 305 305 306 307 308 308 308 309 310 308 307 309 308 309 311 310 308 305 302 300 299 297 296 296 295 294
300 300 298 295 295 297 298 297 297 300 303 303 301 300 300 299 298 296 296 297 297 297 296 295 294 294 294 294 294 295 295 294 294 295 294 297 299 296 295 296 297 299 300 300 301 302 302 302 302 304 305 304 305 305 305 306 305 305 305 305 305 305 305 306 307 308 309 309 309 309 308 308 308 308 307 306 307 306 306 306 303 300 298 297 296 295 294 294
299 301 302 299 297 297 297 297 296 297 300 302 301 301 300 300 298 295 295 296 295 295 295 294 294 294 294 294 294 295 295 294 294 294 294 295 297 296 295 295 296 298 298 299 300 301 302 302 301 303 304 303 303 303 303 303 303 304 303 303 304 304 304 306 307 308 309 308 308 309 309 308 307 306 306 305 305 305 305 306 305 301 298 297 296 295 294 294
297 302 306 302 301 301 300 299 298 297 299 300 301 302 301 300 299 298 297 295 293 293 295 295 294 294 295 295 294 295 294 294 295 295 295 294 294 295 295 293 294 298 297 297 299 299 300 301 301 301 302 302 302 302 302 302 301 301 302 302 302 302 304 305 305 306 307 307 307 307 308 308 306 305 305 305 305 305 304 303 302 300 298 297 296 295 294 293
298 300 302 299 300 304 304 303 301 298 297 299 299 301 301 300 300 300 298 295 294 294 295 296 297 295 294 294 294 295 296 296 297 297 296 294 294 294 295 294 294 296 296 297 299 298 299 301 300 300 301 300 299 300 300 299 299 299 299 300 300 300 301 302 304 304 305 306 306 305 306 306 305 305 304 304 305 305 303 301 301 300 299 297 296 295 294 293
299 299 300 299 299 302 303 303 302 299 298 298 299 300 301 301 301 300 297 297 298 296 293 295 298 295 293 294 294 294 296 297 298 298 295 294 294 294 295 296 296 294 293 296 298 297 298 299 298 299 299 297 298 300 298 297 298 298 297 297 298 299 300 300 301 302 303 304 304 304 305 305 304 304 304 305 306 304 303 303 302 300 298 297 296 295 294 294
298 297 300 301 300 301 302 302 301 301 300 299 299 300 300 301 302 301 299 299 300 299 295 296 298 296 293 293 293 294 295 295 297 298 297 296 294 295 295 295 297 296 293 294 296 297 297 298 299 298 297 297 298 298 297 295 295 296 297 296 296 297 299 300 300 300 302 303 303 304 304 304 303 305 307 309 309 307 307 307 304 300 298 297 297 296 295 294
297 295 296 300 302 301 302 301 300 300 300 300 300 300 301 302 302 301 301 300 298 298 298 298 297 296 295 295 294 294 294 294 295 297 298 296 295 296 297 295 296 297 295 293 295 296 296 298 299 296 296 299 298 296 295 295 296 300 302 301 299 298 298 299 299 299 300 301 302 304 303 303 305 307 309 311 312 312 311 309 306 303 299 297 297 297 296 294
Wind_Speed
8 8 8 8 8 9 9 10 10 10 11 12 13 13 13 13 13 14 15 15 15 15 16 16 16 16 15 15 15 10 9 6 8 16 13 8 12 13 14 16 17 19 21 21 21 21 18 17 18 21 19 8 1 1 2 1 0 2 3 3 4 4 4 4 3 4 3 3 5 6 6 4 4 3 1 5 10 8 9 9 7 9 9 8 8 4 12 22
8 8 8 8 8 8 9 9 10 10 11 11 13 13 13 14 14 15 15 15 15 15 15 15 16 17 15 14 13 10 8 4 6 12 10 9 12 13 14 15 16 19 21 22 22 19 11 10 15 15 10 4 2 1 1 2 1 2 3 2 5 5 4 2 3 1 3 3 5 6 6 3 2 4 3 3 5 5 10 8 6 9 9 9 13 11 14 23
8 8 8 8 8 8 9 9 10 11 10 10 12 13 14 14 14 15 15 16 16 15 15 15 16 16 14 13 12 11 8 3 4 7 10 11 13 14 13 14 15 16 18 19 18 16 10 10 14 9 3 2 3 2 1 2 1 2 3 2 5 4 4 1 4 2 4 4 4 6 5 3 3 5 3 4 5 4 5 4 4 7 6 6 8 12 11 17
7 8 8 8 8 8 9 10 10 10 10 10 12 14 15 15 15 15 16 16 16 15 15 15 16 16 13 12 11 10 7 4 3 7 11 12 14 15 13 13 15 15 16 15 13 14 13 11 9 3 2 3 4 2 1 2 1 2 3 4 5 3 3 3 6 5 5 4 3 5 5 4 3 5 4 2 4 2 1 2 4 3 5 4 4 8 11 14
7 8 8 8 8 8 9 10 10 10 11 11 12 13 15 15 16 16 17 17 16 15 14 15 17 15 13 11 9 8 4 3 4 9 12 13 15 15 12 13 13 14 14 13 11 14 15 12 7 3 2 2 4 4 2 3 1 2 2 4 3 1 1 4 7 6 5 4 5 6 5 4 2 4 7 5 1 0 1 3 5 4 3 3 4 5 9 12
7 8 8 8 8 8 9 9 9 10 11 11 11 13 14 15 16 17 17 16 14 14 14 14 16 15 13 10 7 6 3 2 5 10 12 13 15 14 11 12 11 12 13 14 15 14 11 10 7 4 3 2 3 3 3 5 3 1 2 1 3 3 1 4 6 6 6 6 6 5 3 2 3 3 4 6 4 2 3 4 4 5 4 4 5 6 8 10
8 8 8 8 8 8 9 9 9 10 10 11 11 13 14 14 16 16 16 15 14 13 13 15 16 13 12 8 3 5 5 1 6 9 11 14 14 11 10 11 10 10 14 18 16 9 6 8 7 3 3 3 3 4 4 6 4 2 2 4 4 2 2 4 4 5 6 5 3 3 2 3 2 0 2 6 5 4 4 4 4 4 4 4 6 7 8 9
8 8 8 8 8 8 8 8 9 10 10 10 11 12 13 14 15 15 15 15 13 13 13 15 15 12 12 9 2 4 3 2 8 10 11 13 11 9 10 10 10 11 15 18 13 6 4 7 5 3 3 2 2 4 5 6 5 4 2 5 4 2 2 5 4 5 7 4 3 4 5 3 0 3 4 4 3 4 5 4 4 3 4 5 7 8 8 8
8 8 8 8 8 8 8 8 8 9 10 10 11 12 13 13 14 14 14 14 12 12 12 15 15 11 11 8 4 3 3 4 8 10 11 11 10 10 10 10 11 12 13 15 14 11 6 4 3 2 1 3 3 5 5 3 2 3 3 5 4 4 4 4 4 5 6 4 3 5 4 1 2 4 3 2 3 3 4 5 5 4 4 5 6 7 7 7
8 8 8 8 8 8 8 8 9 9 10 10 11 11 12 12 13 13 13 12 11 10 12 14 14 11 9 6 4 2 3 5 7 8 9 10 11 11 10 10 10 11 12 13 14 11 5 2 3 1 2 2 2 4 4 2 1 3 4 3 3 6 5 2 3 4 4 4 1 4 4 1 2 0 1 2 3 4 4 4 3 4 4 4 5 6 7 7
8 9 8 8 8 8 8 9 9 9 10 10 10 11 11 11 12 12 11 11 10 10 12 13 13 11 9 6 5 2 3 5 5 7 8 9 11 11 10 9 10 10 11 11 12 9 6 5 6 2 1 1 2 3 2 1 3 4 2 3 5 6 6 3 4 5 2 3 2 4 3 0 2 1 1 3 4 4 4 3 1 2 3 3 5 5 6 7
8 8 8 8 8 8 9 9 9 10 10 10 10 11 11 11 11 11 10 9 10 10 10 12 11 9 8 4 3 1 3 3 3 7 8 8 10 10 9 8 8 9 8 8 8 9 8 8 8 4 2 1 1 2 2 4 4 3 2 3 6 7 6 6 5 4 3 3 3 4 4 3 2 1 4 5 4 3 3 3 1 1 1 2 3 4 5 6
8 8 8 8 8 8 8 9 9 10 11 11 11 11 11 11 11 11 10 8 8 9 9 9 8 8 6 2 1 1 1 2 4 8 8 9 10 7 7 7 7 7 7 7 7 7 8 8 6 1 2 1 1 3 2 4 3 3 3 2 4 6 6 6 4 3 2 3 5 4 4 4 3 2 5 5 4 4 3 3 2 1 1 2 2 3 4 5
8 8 8 8 8 8 8 9 10 10 11 11 12 12 11 11 10 9 9 8 6 6 7 7 7 7 3 1 2 1 1 1 5 9 9 10 11 7 5 6 7 7 7 8 7 6 8 9 6 2 1 2 2 3 4 5 3 2 3 2 2 2 4 7 5 4 2 3 3 6 5 6 4 4 6 5 5 4 3 2 2 1 0 2 2 3 3 4
8 8 8 8 8 9 9 9 10 10 11 12 13 12 12 11 8 8 9 7 5 5 5 4 5 5 2 2 2 2 1 2 6 11 9 10 12 8 8 9 8 7 7 8 7 7 9 8 4 1 2 1 2 4 4 4 3 2 2 2 3 1 3 7 5 4 1 5 1 5 6 5 2 3 5 3 3 4 2 2 1 0 0 1 1 2 2 2
8 8 8 8 8 9 9 9 10 11 11 12 12 12 11 8 7 7 8 6 4 5 4 2 5 4 2 2 1 1 2 2 7 10 8 9 8 7 11 12 9 8 10 10 7 8 8 4 1 1 1 3 4 4 3 4 4 3 2 1 3 1 2 4 3 2 1 3 3 2 4 3 2 2 0 0 2 3 2 2 1 1 1 1 0 0 0 0
8 8 8 8 8 8 9 10 11 11 11 10 11 12 9 6 5 5 6 6 4 5 2 2 5 3 1 0 0 1 2 3 7 8 7 9 6 7 11 8 6 11 13 10 6 6 5 2 1 1 2 3 2 3 4 3 2 3 2 1 3 2 1 2 3 4 5 4 2 3 1 2 2 2 2 3 3 3 2 3 2 2 2 2 1 1 2 2
8 8 8 7 8 8 9 10 10 10 9 8 11 12 7 4 4 4 5 5 4 2 1 3 2 1 1 2 0 3 4 5 7 5 8 10 7 7 8 4 5 10 9 6 5 5 3 2 2 2 3 3 3 4 2 2 1 2 2 0 2 3 1 1 3 3 6 5 2 4 2 4 4 2 1 2 2 3 3 3 2 3 3 3 3 3 3 3
8 8 8 7 8 8 8 9 9 9 8 8 10 7 2 1 1 1 4 4 1 1 0 2 1 2 2 3 2 5 6 5 4 5 10 12 10 8 6 4 3 5 5 3 4 4 2 3 3 2 3 4 3 1 3 5 3 2 3 2 1 3 3 3 4 3 4 3 2 2 2 4 5 5 4 3 3 3 4 4 3 4 4 4 4 4 4 5
8 8 8 7 8 7 8 9 7 7 8 10 10 5 2 3 3 2 5 3 1 1 2 2 1 1 2 2 4 6 4 3 2 6 12 13 12 8 5 5 4 5 3 1 3 3 3 3 2 1 2 4 5 4 4 3 2 2 2 1 2 2 4 5 4 5 3 1 3 3 3 4 5 7 7 6 4 4 6 6 6 6 5 5 5 5 6 5
8 8 8 7 7 7 8 7 5 4 7 10 10 5 3 2 2 1 4 3 4 3 2 3 2 1 2 1 4 5 2 2 3 7 13 13 8 4 4 4 5 4 3 1 2 3 4 3 2 3 5 5 5 4 1 0 2 3 3 1 3 2 5 5 3 6 4 2 4 2 2 6 7 7 7 5 4 6 9 9 9 9 9 7 7 8 6 4
8 8 8 7 7 7 7 5 3 3 6 8 9 6 4 3 3 2 0 2 5 3 0 0 1 1 2 1 2 2 2 3 4 6 12 13 6 2 2 3 5 2 4 3 3 4 4 1 5 5 4 3 4 4 3 2 3 3 1 1 3 2 4 5 4 5 3 2 3 2 3 7 8 7 6 8 8 8 9 10 9 8 9 8 9 9 7 6
8 8 7 7 7 7 5 3 3 4 7 7 8 7 4 2 2 1 2 2 4 4 1 1 1 1 1 1 2 1 4 3 2 5 11 11 4 1 1 3 3 2 4 5 3 3 2 3 5 4 1 3 4 5 5 3 3 2 1 1 3 2 1 3 5 5 4 1 3 3 3 6 7 5 5 8 8 6 5 6 6 6 7 8 9 8 8 9
8 7 7 6 7 5 3 3 4 4 5 6 8 7 3 1 2 2 1 2 2 3 1 1 1 2 1 1 0 2 2 1 1 4 8 7 2 2 1 1 3 3 3 4 1 1 3 5 4 2 3 3 2 4 4 3 3 3 2 2 3 3 3 4 5 6 6 4 3 3 5 6 5 5 7 5 4 6 6 5 7 7 7 7 6 8 9 10
7 7 6 6 6 4 2 3 4 5 3 6 7 5 2 2 3 2 2 3 2 4 2 1 1 1 2 2 1 2 2 1 0 3 6 5 1 2 1 1 2 2 4 4 2 1 5 6 3 4 5 3 1 3 0 3 2 4 2 4 5 4 5 4 4 5 5 5 2 1 2 6 5 5 8 4 3 7 7 6 9 10 8 7 7 9 10 9
7 6 5 5 4 3 1 2 4 4 4 5 4 2 1 4 3 2 2 4 2 4 1 1 1 1 2 1 2 2 3 1 1 2 4 4 2 1 1 2 1 1 3 3 2 1 4 4 4 2 2 3 3 3 3 3 2 2 2 3 3 2 0 3 4 3 1 4 3 2 2 6 6 6 9 6 5 9 7 7 12 11 9 9 10 10 9 9
7 6 5 3 3 2 1 1 2 2 3 2 2 0 3 3 2 1 2 5 3 2 1 1 0 1 3 1 2 4 2 2 1 2 3 3 3 1 2 1 1 0 1 2 2 1 2 5 6 4 2 2 2 3 3 3 4 2 3 2 0 2 2 1 2 2 2 4 4 2 2 4 6 8 10 6 6 10 8 10 13 11 12 14 13 12 11 11
7 6 4 2 1 1 1 1 2 3 3 1 1 2 3 1 1 1 4 3 2 0 1 1 1 1 1 2 3 3 1 1 1 2 4 3 3 2 2 1 2 2 1 4 1 4 1 2 3 3 4 2 3 4 4 3 3 4 5 3 2 1 1 1 1 2 2 3 6 6 1 2 6 7 6 4 5 11 12 13 15 14 14 15 15 15 13 13
7 6 4 1 1 1 2 2 3 4 3 1 2 3 1 0 1 3 5 0 1 1 1 1 2 1 2 3 3 2 1 2 1 3 5 3 1 2 1 2 2 1 2 3 3 5 2 2 3 3 0 3 4 5 3 4 2 4 3 2 3 3 1 1 2 2 2 3 11 10 2 2 6 7 7 4 4 10 13 13 14 15 16 16 16 17 15 13
7 5 3 2 3 3 3 2 4 5 3 1 1 2 1 1 3 5 2 2 0 0 0 1 2 1 4 3 3 3 1 1 2 2 4 2 3 3 1 1 2 3 3 2 2 5 3 2 3 3 3 4 3 4 3 4 4 2 3 4 5 5 4 3 2 2 3 5 12 8 6 4 6 9 11 8 7 11 12 12 12 12 14 15 16 16 16 14
8 5 4 4 5 5 3 2 5 5 3 2 2 2 1 2 4 5 1 2 1 1 1 0 2 2 5 2 2 2 1 2 4 3 2 2 4 4 2 1 3 3 3 4 3 4 5 2 2 3 3 3 1 4 3 2 1 2 4 4 3 5 4 4 4 3 1 7 8 2 6 6 7 12 10 8 10 12 12 13 14 14 13 14 14 14 15 14
7 4 5 7 7 5 2 2 6 6 3 4 3 2 3 2 1 2 2 2 1 2 0 0 1 2 3 2 1 2 1 2 2 3 1 0 1 1 1 2 1 3 3 2 2 5 4 2 2 4 3 3 3 1 3 4 2 4 3 4 3 3 4 3 3 1 3 7 6 0 3 3 10 15 11 10 13 15 15 15 16 17 15 13 13 13 13 12
6 3 6 9 9 5 3 4 6 6 5 5 4 3 6 4 2 4 1 1 1 2 1 1 1 3 3 1 2 2 0 1 0 2 1 1 1 2 2 4 5 3 1 2 2 4 3 4 2 2 3 3 5 3 2 2 1 3 3 3 3 2 1 2 3 2 4 7 7 2 2 4 8 11 12 15 18 18 17 17 18 18 17 14 13 13 12 12
2 5 7 9 8 5 4 4 6 7 7 5 3 4 5 1 4 3 1 3 2 1 2 2 2 3 2 1 3 2 0 2 1 2 0 1 1 2 2 3 4 4 2 1 2 1 2 4 2 3 2 3 6 5 4 3 2 3 4 5 3 4 3 3 3 3 4 5 5 2 2 4 4 4 6 10 13 15 15 16 18 18 17 13 10 10 11 13
3 7 7 6 5 5 4 5 6 8 7 4 4 4 3 4 4 2 2 4 2 0 1 1 3 2 3 3 3 1 1 2 1 2 0 1 2 3 2 3 4 4 2 1 2 1 2 4 6 3 2 6 6 4 5 5 1 1 3 4 2 4 4 2 4 5 3 6 5 3 3 6 5 9 11 11 12 13 14 16 16 17 16 10 7 9 12 13
6 6 6 4 3 4 5 7 8 8 5 4 5 2 4 4 3 3 3 2 3 3 1 2 2 2 3 3 2 2 0 1 1 0 1 2 3 4 4 3 5 6 5 3 2 1 1 5 6 1 1 6 7 5 6 4 2 1 2 2 3 4 4 1 3 3 1 5 5 3 6 8 6 12 14 12 14 14 14 14 14 16 14 10 9 10 12 13
8 5 4 5 4 4 6 9 10 7 3 5 3 3 4 3 3 3 2 2 2 4 4 1 1 2 2 2 2 2 1 2 1 0 1 2 3 4 4 3 4 8 7 3 1 2 1 4 5 3 4 6 3 4 3 4 5 4 3 3 2 2 3 1 3 3 1 5 5 4 10 11 7 8 6 5 10 14 14 13 13 15 12 11 12 12 13 14
8 4 3 5 6 6 8 10 10 6 3 4 1 4 3 2 2 2 3 3 2 3 4 2 3 2 3 2 3 3 2 1 1 1 1 2 3 3 4 2 2 5 6 5 1 1 2 2 5 3 4 3 2 2 3 4 4 3 2 2 2 1 1 1 2 3 2 5 5 4 9 10 7 7 8 9 12 15 16 13 11 12 11 12 13 13 13 13
7 2 1 4 7 8 10 11 8 4 3 2 3 4 2 2 3 2 3 3 3 3 2 3 2 1 3 4 3 3 3 3 2 1 1 2 3 3 4 2 2 3 5 7 3 2 2 1 4 2 1 1 3 2 3 2 1 0 1 1 1 2 2 1 2 2 2 4 6 5 7 7 7 8 9 13 15 15 15 11 9 11 12 13 12 12 12 12
5 1 1 5 9 11 12 9 4 3 2 2 4 2 1 2 3 2 1 1 2 2 2 3 2 2 3 4 3 2 2 3 4 2 2 2 3 4 4 3 3 3 4 5 3 1 2 2 3 2 1 2 1 3 5 4 4 3 3 4 4 2 1 2 3 3 3 4 5 6 8 9 9 6 8 13 15 14 11 9 9 10 10 12 11 11 11 12
3 0 1 6 12 13 11 6 1 2 1 2 3 2 1 1 1 1 2 1 0 1 1 2 3 3 3 3 3 3 2 2 4 3 3 3 2 3 4 5 6 5 4 3 2 2 2 2 3 2 3 4 5 5 6 6 6 5 5 6 6 5 2 3 5 4 4 4 4 5 7 13 11 3 6 10 10 10 9 8 10 9 8 9 7 9 10 11
1 1 2 8 14 12 8 2 1 2 2 3 3 2 1 1 2 2 1 1 0 1 1 1 2 3 3 3 2 3 3 2 3 3 3 4 4 4 3 6 8 7 6 2 2 3 3 1 3 5 5 7 10 6 4 5 5 4 5 5 4 5 5 4 5 3 3 5 6 5 6 13 10 3 5 7 6 8 8 7 10 8 6 6 6 7 8 9
2 2 3 9 12 9 4 1 2 2 2 3 1 1 2 2 2 2 2 1 1 1 0 1 2 3 3 2 2 3 3 2 4 5 3 4 4 5 5 8 9 7 4 1 1 2 3 2 2 5 5 7 7 3 1 2 3 3 5 5 5 6 7 8 6 3 3 4 5 4 6 12 8 3 4 5 4 7 7 5 8 7 3 6 8 7 8 9
3 2 2 7 10 7 2 2 3 4 4 2 1 2 2 2 4 4 4 4 3 3 2 2 3 3 2 1 2 3 4 2 3 4 3 3 3 2 4 9 10 7 4 2 2 3 3 2 2 2 5 6 5 2 0 1 3 4 4 4 7 8 8 8 6 3 5 8 8 4 7 11 7 1 2 5 4 6 6 4 4 5 4 5 7 8 8 10
3 2 2 3 6 4 2 2 2 2 3 1 1 3 2 2 3 5 4 4 3 4 3 2 1 2 2 2 1 2 3 2 2 2 1 2 3 2 3 8 9 6 4 2 3 3 2 2 3 2 2 4 4 3 3 2 2 3 2 5 8 10 12 9 4 3 7 8 6 5 8 13 14 12 10 9 7 7 7 4 1 4 5 6 7 8 8 9
3 2 1 1 2 2 2 2 1 2 2 2 1 2 3 2 2 2 4 3 3 4 3 1 1 3 2 2 2 3 4 3 2 2 2 2 3 2 1 6 6 4 4 3 4 3 0 2 5 6 7 8 8 8 4 1 3 5 6 8 9 10 13 9 4 5 6 5 7 11 12 15 21 21 16 14 13 12 9 4 0 3 5 6 7 7 8 8
2 3 4 3 1 2 2 3 2 3 2 3 3 2 4 4 2 0 2 3 2 3 2 1 2 3 3 4 3 4 3 2 2 3 4 4 4 4 1 4 4 4 4 4 3 2 0 3 7 10 13 14 13 14 11 7 10 13 13 13 11 9 10 10 10 10 3 3 10 11 6 10 19 19 17 18 17 15 13 7 4 4 5 6 6 7 8 8
3 2 3 5 3 3 3 4 6 7 5 4 3 2 3 4 2 2 3 1 1 2 3 2 4 8 8 7 4 3 2 0 3 4 3 3 3 3 2 2 4 5 4 2 1 3 2 4 5 8 14 15 13 15 14 11 13 15 15 17 16 12 11 13 17 16 8 8 15 12 7 12 18 19 21 20 14 12 13 9 2 5 5 6 7 8 9 10
3 2 2 2 2 4 4 5 9 10 8 5 3 3 4 5 5 3 2 2 1 4 4 3 7 10 10 7 5 3 4 3 4 5 3 3 3 2 1 2 2 2 3 3 1 2 3 3 4 5 10 13 12 14 15 13 14 15 17 18 17 15 16 16 18 17 14 16 20 19 18 20 19 19 21 17 11 8 8 4 2 5 6 7 8 9 10 11
3 2 3 1 0 3 2 3 7 7 7 5 4 4 4 6 7 3 2 5 3 2 5 7 9 8 10 9 7 7 9 8 6 5 5 4 3 3 3 3 2 1 2 4 2 2 3 2 2 0 5 9 9 11 13 11 11 15 18 18 16 15 15 16 16 13 12 16 20 19 17 18 18 16 14 11 6 3 3 2 1 4 6 7 8 9 10 11
7 1 2 3 1 4 3 2 5 5 4 5 5 5 4 6 8 5 3 8 9 6 9 11 8 4 6 8 10 13 14 11 8 7 8 7 4 4 3 3 5 5 3 4 2 3 5 2 3 4 4 7 5 5 8 8 8 13 19 20 16 13 10 10 11 10 11 14 14 11 10 13 13 9 6 6 4 2 3 4 3 4 5 7 9 9 10 11
11 3 0 3 2 5 5 3 4 5 5 6 7 7 7 7 8 6 3 5 8 8 10 11 7 5 4 7 14 17 15 11 9 6 6 4 2 3 3 3 5 6 5 5 2 2 5 2 1 2 3 7 5 5 6 8 9 10 12 12 8 8 8 8 7 9 12 10 7 7 8 10 7 3 3 6 6 5 5 5 4 5 6 8 9 10 10 11
Wind_Direction
10 8 5 2 360 358 358 358 358 356 355 356 357 358 358 360 359 355 354 354 353 350 349 351 349 346 349 351 348 353 12 28 41 39 47 28 348 338 338 335 337 342 341 341 348 349 346 344 341 345 344 339 15 295 283 248 153 86 109 174 214 195 197 189 179 215 229 284 323 338 330 296 295 350 350 35 53 85 93 88 87 77 62 47 35 50 143 145
6 5 2 0 358 356 355 354 354 351 352 353 353 353 354 355 354 353 350 350 350 347 346 347 346 343 346 350 345 349 3 38 63 42 35 14 352 341 339 341 341 342 344 346 345 340 334 323 322 337 348 344 324 298 296 282 186 144 139 187 222 193 208 182 131 273 328 304 300 316 316 309 322 327 316 75 73 79 96 101 99 88 59 36 33 53 130 145
3 4 1 358 353 352 352 350 352 351 349 350 351 351 352 351 349 349 348 346 346 345 344 343 343 341 344 350 346 342 344 22 67 16 6 8 352 341 344 345 344 345 347 347 344 338 328 306 308 324 354 336 303 310 334 272 241 196 147 196 239 207 229 327 62 18 331 302 305 323 327 27 11 332 317 117 103 67 93 98 99 117 91 45 21 35 92 126
1 1 359 356 350 349 350 350 350 352 351 347 347 348 349 349 348 347 345 343 343 343 342 342 341 340 344 347 343 332 335 26 29 341 357 4 347 341 345 347 347 348 350 352 353 352 352 336 319 325 9 320 308 349 301 255 245 209 162 194 237 221 238 328 20 10 346 325 335 336 350 35 14 10 8 68 107 71 55 6 19 116 112 71 29 31 63 97
358 355 356 353 349 348 348 350 349 352 352 346 345 345 346 347 346 344 343 343 343 344 342 343 342 340 344 346 340 328 346 42 338 345 3 357 343 340 343 350 350 346 354 5 5 7 11 7 3 32 30 314 325 358 260 287 338 223 214 194 246 342 239 329 359 358 352 349 11 7 4 10 4 40 19 9 82 180 35 18 9 23 40 44 54 54 70 87
353 350 352 347 347 347 346 347 346 349 348 347 346 344 345 344 343 343 344 344 343 345 342 342 343 342 345 347 349 353 47 92 326 350 358 348 341 341 347 347 345 346 3 19 20 24 22 16 24 32 7 333 333 336 273 316 7 222 287 350 347 17 108 338 347 346 359 25 22 357 339 39 61 49 20 39 57 21 26 33 24 17 5 33 56 68 77 79
348 346 349 344 342 342 345 346 343 345 345 346 344 344 345 343 344 344 345 346 342 344 343 341 345 346 348 354 11 25 69 120 332 350 348 346 340 342 353 344 342 354 17 26 23 26 28 29 27 0 0 3 345 329 299 321 11 119 275 336 347 13 61 332 327 339 4 31 356 330 19 39 34 199 48 61 63 42 39 35 34 22 7 39 54 63 72 72
345 342 342 341 340 338 341 342 341 341 341 343 342 343 344 342 344 342 345 346 341 344 341 340 346 352 355 3 61 33 35 298 337 348 342 348 343 344 350 345 350 -0 23 30 25 25 39 38 17 9 30 348 344 337 325 335 5 63 334 323 335 326 336 319 333 353 353 3 340 9 38 19 234 137 91 79 79 55 47 33 13 5 18 45 56 59 61 66
342 339 336 335 337 336 335 334 335 336 339 340 338 340 341 341 343 341 346 345 343 346 338 340 348 355 355 1 80 52 337 310 343 350 347 353 349 344 344 349 358 1 18 26 28 37 47 46 3 32 70 287 331 330 336 357 343 27 336 311 329 321 315 325 352 355 337 321 0 23 12 353 151 112 88 123 109 77 63 39 355 345 21 52 58 57 58 64
338 336 335 333 333 334 333 330 331 331 335 337 335 338 337 339 341 340 345 343 345 343 334 342 347 352 355 2 69 67 331 344 359 -0 352 349 345 344 351 357 360 1 10 14 24 34 45 52 336 286 198 256 312 309 345 53 278 317 304 285 322 320 307 324 327 306 309 295 41 46 339 254 184 316 68 171 132 109 92 62 0 347 7 47 61 60 60 61
337 336 332 331 330 330 331 331 331 329 330 333 334 334 333 336 338 337 341 340 341 335 332 345 348 349 356 19 83 119 328 356 5 1 345 335 340 342 348 356 358 358 1 6 13 19 23 13 354 352 188 239 306 311 328 277 305 303 295 321 325 329 315 300 291 274 277 281 152 94 331 248 148 302 146 163 144 131 114 98 52 5 353 34 60 63 62 56
337 334 331 329 327 325 327 328 328 327 326 328 329 329 329 332 333 333 334 335 336 330 334 348 348 348 356 25 87 248 308 346 348 353 345 332 334 330 333 340 344 345 346 354 355 5 9 355 14 42 231 297 354 331 298 278 316 320 14 2 321 349 334 296 289 253 187 241 192 120 308 255 167 204 143 148 146 142 126 123 112 35 345 18 57 64 64 53
334 333 332 326 324 325 325 324 324 325 324 324 324 326 325 324 327 328 327 331 335 332 338 346 337 341 5 28 309 283 304 5 346 348 349 341 331 320 322 319 319 327 327 333 332 348 354 340 4 23 235 76 270 267 320 326 343 329 12 45 327 2 330 296 308 286 214 229 182 142 279 245 180 157 153 160 161 161 156 165 185 134 0 358 40 59 63 52
332 331 330 325 322 322 322 323 322 321 322 322 322 322 321 318 319 321 318 318 330 335 337 342 333 336 10 225 268 111 100 21 353 346 343 340 338 332 328 320 315 326 319 312 318 335 336 328 340 333 208 147 247 302 0 348 5 342 349 26 11 26 292 309 345 6 349 272 157 144 242 247 205 190 175 170 167 182 206 199 189 166 44 2 14 50 60 53
331 327 326 324 321 321 320 321 321 321 321 320 321 320 319 315 311 317 314 312 324 331 329 355 1 355 26 314 266 149 6 342 356 349 337 332 340 338 331 325 316 330 333 314 310 319 324 327 352 38 287 288 29 28 3 339 356 18 17 336 351 159 268 320 351 46 15 290 356 155 227 264 234 178 171 165 181 201 215 215 219 248 133 37 351 41 57 57
329 325 323 322 324 324 321 321 321 320 320 320 322 322 319 309 307 313 305 304 311 310 315 6 3 13 73 326 244 174 326 338 351 352 348 338 339 330 326 323 312 327 341 331 311 305 317 339 38 115 335 358 53 61 30 12 346 2 80 254 296 244 290 324 337 30 30 305 323 223 240 288 7 58 207 316 238 225 203 212 222 242 253 244 294 352 257 179
327 324 324 324 324 321 320 323 320 320 325 327 328 328 321 295 294 305 292 290 283 286 296 293 320 357 80 342 180 290 312 344 346 350 1 352 337 324 328 330 328 332 338 344 341 324 329 16 28 7 32 29 60 76 51 25 319 340 29 282 282 284 304 317 298 337 17 33 337 323 305 249 305 344 319 346 328 280 221 201 208 215 235 228 216 244 241 240
328 326 325 323 321 320 321 322 319 324 331 334 333 329 322 284 283 299 295 289 271 270 288 280 308 43 315 305 302 296 308 339 345 346 352 349 333 324 329 321 324 337 346 359 5 5 354 357 38 35 14 11 28 68 84 210 177 333 317 287 322 319 307 302 281 319 14 34 3 355 351 240 258 270 270 318 323 291 240 205 205 219 221 214 214 219 218 227
328 327 324 321 320 321 322 322 323 331 337 344 342 334 330 0 316 298 327 334 342 106 153 285 32 98 293 284 299 311 321 339 349 357 351 346 333 326 337 334 331 2 19 14 352 3 20 7 33 45 0 348 338 77 195 212 184 261 263 174 285 312 286 281 272 285 5 22 325 313 259 240 235 226 218 218 218 229 228 200 190 218 225 217 221 224 214 220
330 328 322 322 321 320 322 322 327 338 346 354 357 8 81 39 36 336 336 352 252 204 189 239 200 69 318 299 324 334 352 25 39 5 354 344 330 333 0 1 11 36 32 12 325 339 57 47 6 265 272 296 295 270 234 226 180 157 104 97 294 294 290 293 284 293 341 15 272 218 208 247 236 234 229 219 222 223 221 207 199 209 213 215 223 227 221 219
329 326 324 324 322 321 321 322 336 354 2 9 14 37 122 83 66 311 322 317 282 278 223 219 184 239 284 270 338 352 42 47 26 10 0 346 330 339 354 6 35 24 330 281 296 337 51 52 272 226 227 266 301 302 260 161 85 95 98 28 324 278 267 275 266 295 343 45 272 209 201 266 248 237 232 215 218 226 222 213 209 209 205 208 215 220 221 210
329 326 327 325 321 321 321 329 13 40 31 34 47 75 123 119 116 169 71 315 296 317 148 232 57 296 292 251 310 3 69 21 351 357 0 353 352 15 342 37 59 354 318 352 1 4 26 315 260 240 236 297 340 16 40 61 74 69 81 17 319 288 279 291 287 302 354 58 284 246 217 262 256 243 228 209 211 225 224 218 219 217 211 210 209 211 207 199
328 328 327 325 323 320 328 1 61 60 43 49 71 88 104 120 156 203 95 101 290 311 14 14 48 262 319 291 252 55 67 33 309 320 352 357 355 36 48 53 41 341 356 20 28 26 6 266 258 246 282 14 347 6 29 34 53 43 357 340 289 288 315 300 301 319 333 286 267 275 270 268 269 271 244 222 223 246 260 248 250 239 224 224 219 214 204 201
327 327 324 324 323 318 349 59 79 52 42 73 90 95 109 188 225 230 112 91 290 291 267 241 201 180 204 230 196 95 88 62 237 302 349 11 346 348 54 100 39 24 353 356 42 140 248 256 277 323 33 56 315 339 27 43 358 312 258 226 258 286 250 242 285 328 337 310 248 268 302 287 270 264 254 250 253 263 266 270 275 259 240 243 243 233 217 208
326 325 325 328 324 321 25 79 60 42 66 100 100 103 108 297 282 213 133 65 322 293 317 268 233 191 207 191 164 138 118 66 153 277 338 15 357 342 324 217 68 44 312 328 356 285 264 270 317 346 2 45 33 315 55 116 349 319 260 229 242 258 254 267 320 353 358 327 287 173 294 286 290 275 260 281 303 255 239 226 248 252 246 246 245 236 225 216
326 325 327 329 324 328 85 83 27 45 95 97 100 106 350 304 290 215 117 53 344 286 315 168 180 223 238 203 167 134 84 334 270 295 345 5 339 116 41 322 61 118 287 325 346 295 282 319 12 2 334 24 20 302 247 130 77 320 262 223 207 174 0 346 5 44 54 289 294 120 219 272 299 291 262 258 248 248 243 226 234 238 236 235 234 233 229 223
326 324 321 324 341 2 109 89 18 70 103 88 121 55 323 296 269 227 70 40 339 266 146 185 140 161 225 261 133 121 94 277 303 5 6 6 336 34 87 317 18 114 267 48 19 299 302 348 10 26 32 12 330 283 258 131 108 252 252 225 207 53 32 353 47 72 227 275 292 227 198 266 280 268 251 235 235 252 255 246 243 233 228 230 229 228 225 223
325 322 315 315 9 39 96 87 68 96 104 102 235 301 320 302 245 109 85 56 293 199 116 230 161 135 236 348 57 111 146 304 93 328 344 16 337 22 69 255 182 218 261 103 135 277 298 358 355 28 31 340 242 240 235 130 115 255 259 286 323 15 242 223 58 283 281 359 293 258 154 250 263 265 255 211 227 257 252 241 241 233 227 227 227 226 221 220
321 314 305 283 130 128 104 99 108 113 127 148 309 286 281 322 340 67 82 153 270 70 45 89 136 282 348 29 21 36 53 46 120 273 328 12 336 41 84 242 160 177 303 109 189 257 254 206 184 123 335 254 238 244 218 139 178 258 273 332 356 27 0 37 55 284 28 7 269 256 149 224 266 271 258 227 218 247 248 241 235 228 224 221 220 220 218 214
313 303 278 206 159 148 135 137 143 135 148 230 273 219 192 6 55 63 48 243 164 58 257 113 174 319 39 53 343 354 37 321 315 322 341 0 338 4 116 231 80 77 337 357 236 255 282 263 191 160 223 216 223 264 228 182 220 289 31 23 5 5 8 29 36 51 53 284 265 244 165 178 271 263 241 231 224 224 234 245 242 230 223 220 218 215 212 208
307 289 239 195 165 156 149 165 172 163 175 207 175 141 107 23 71 91 232 239 102 323 0 44 275 31 54 69 293 332 38 306 330 22 15 351 350 354 40 15 31 46 353 346 310 293 332 344 225 250 243 179 198 291 293 270 247 53 52 51 13 337 357 15 2 38 155 258 273 224 150 163 244 257 243 232 237 229 229 241 245 240 227 220 219 213 209 206
303 265 208 179 167 176 194 160 163 171 188 165 129 81 78 49 40 180 245 341 351 268 87 238 290 65 73 54 293 275 289 306 345 67 119 61 8 318 143 180 148 38 341 312 329 326 327 253 240 302 283 163 140 300 314 335 47 86 71 65 47 337 0 359 323 354 219 253 280 210 132 185 244 261 264 248 243 237 233 235 239 241 233 221 216 211 209 206
289 219 180 178 177 190 194 167 169 179 177 144 113 51 77 81 254 217 228 357 220 232 87 100 53 84 103 45 290 261 260 265 245 80 175 137 33 275 217 195 168 123 244 250 316 342 338 303 300 338 302 173 144 156 270 299 124 136 140 116 113 105 37 275 269 290 261 274 288 226 167 264 265 268 257 242 242 239 235 235 236 238 235 224 213 204 201 200
253 157 163 174 177 193 194 175 176 171 158 134 92 55 81 139 240 207 238 252 220 340 48 94 45 41 75 217 256 244 44 277 160 109 316 76 18 273 241 227 178 134 104 339 297 156 87 311 254 187 243 174 176 190 171 151 162 179 154 136 144 151 169 223 225 243 263 285 284 189 155 238 250 266 230 219 235 239 236 236 234 236 235 225 208 194 192 197
144 142 158 167 170 197 196 180 176 164 154 120 63 71 125 224 241 187 232 235 206 337 350 53 69 40 334 303 283 253 176 266 153 112 199 175 190 218 208 215 188 166 134 112 266 173 122 266 247 225 178 162 185 199 149 124 104 234 141 120 176 186 172 214 213 211 262 298 273 210 220 233 248 284 272 254 257 250 242 239 234 237 233 210 186 185 191 197
154 147 166 184 181 176 173 177 179 168 149 90 64 111 200 227 222 176 189 172 153 165 150 10 69 103 302 306 322 333 111 270 293 44 268 215 206 212 207 208 182 180 174 152 209 195 52 281 264 273 218 194 190 181 170 161 145 180 166 162 213 183 151 217 256 233 279 285 262 213 254 268 283 286 272 258 263 260 251 244 237 238 227 196 188 192 191 195
166 164 187 204 186 155 163 175 172 164 128 82 100 209 218 215 190 172 158 116 126 133 117 340 245 169 232 282 292 282 285 305 288 161 268 248 235 210 201 235 193 182 185 156 164 182 147 283 264 195 234 249 198 161 205 205 161 148 184 204 178 137 129 139 269 285 254 263 266 226 256 274 281 279 275 252 258 263 260 249 238 237 219 195 202 198 192 193
169 171 210 207 184 162 164 169 163 149 90 76 187 247 221 192 198 161 147 136 111 96 111 195 227 195 181 199 260 242 169 241 247 180 236 250 249 200 168 207 198 182 183 147 110 270 117 307 287 217 219 279 66 111 271 260 201 171 195 205 135 174 246 162 226 262 236 263 280 241 251 264 249 251 274 272 263 265 267 259 244 235 213 200 207 200 192 189
171 155 239 196 176 167 166 162 147 110 67 103 221 254 211 220 261 212 171 149 114 114 161 210 213 153 166 174 209 218 182 195 190 193 244 227 246 219 175 181 169 168 167 143 157 279 93 116 291 307 211 250 75 137 231 256 222 161 304 249 157 214 259 231 238 254 234 265 288 284 276 269 243 235 253 263 265 266 270 266 245 230 212 205 206 196 187 181
171 112 263 179 165 166 163 151 117 83 92 185 206 227 232 256 268 256 225 170 140 156 210 216 178 172 203 195 198 204 193 193 176 185 238 222 242 247 210 178 141 137 132 122 142 287 78 193 256 336 283 224 186 194 201 189 161 164 220 224 208 198 199 266 249 229 241 274 289 290 291 280 265 234 227 248 260 268 277 273 257 240 218 211 204 190 184 183
165 172 236 167 161 161 148 127 101 136 158 235 222 221 247 216 203 276 331 17 153 233 184 177 184 191 199 203 213 195 167 186 187 193 239 230 231 251 209 165 149 143 127 118 175 187 153 211 242 281 259 230 232 219 202 200 182 178 200 207 213 204 178 266 260 222 220 236 250 267 285 283 277 211 201 240 254 270 279 270 267 257 221 214 200 181 181 179
140 198 196 160 163 162 143 122 247 158 173 240 222 197 193 148 162 213 285 49 120 241 70 107 198 201 192 198 211 184 164 194 196 192 234 230 214 231 204 154 149 152 142 142 223 193 160 175 259 263 253 250 253 243 209 215 210 212 222 199 198 198 189 223 245 241 224 221 241 253 264 276 275 166 192 242 254 273 276 260 264 262 214 186 164 158 163 159
170 180 161 160 170 171 150 256 244 186 228 253 232 202 184 153 167 186 196 203 192 172 107 238 201 199 219 209 176 180 188 198 192 194 230 239 228 233 197 152 144 148 145 144 241 185 156 158 259 273 276 277 273 262 129 187 188 232 241 202 186 201 205 215 230 282 299 241 242 253 255 269 274 152 198 251 264 276 286 264 248 245 190 151 149 148 148 147
164 132 105 166 180 182 177 218 204 208 236 252 332 268 224 195 187 175 187 207 190 159 170 220 207 198 221 170 140 197 213 209 213 217 221 221 234 243 167 159 155 158 188 211 180 175 181 173 196 282 310 320 334 10 26 217 186 224 241 209 210 219 222 236 247 283 287 255 239 243 257 263 265 216 266 291 302 294 305 301 233 194 166 151 148 149 151 150
141 108 52 167 184 190 215 219 181 191 209 180 311 262 230 240 208 180 178 193 188 169 174 228 205 153 148 123 98 259 235 212 230 252 274 239 257 320 145 176 176 172 204 215 130 148 198 191 177 194 267 281 287 258 226 212 200 223 231 209 216 219 219 232 245 237 252 256 238 227 250 271 284 292 297 305 312 308 310 324 45 144 157 156 149 154 157 156
157 170 97 121 205 224 254 274 193 189 187 168 264 242 185 214 251 188 172 193 195 168 163 209 132 113 122 154 178 256 245 227 237 280 295 248 256 304 177 186 195 190 195 171 121 120 281 241 214 212 219 231 248 250 241 280 276 266 259 235 221 216 217 222 232 231 242 281 277 253 249 273 286 291 300 311 315 318 321 318 194 145 154 156 153 157 158 160
190 201 172 152 180 222 246 286 228 215 223 188 202 207 181 203 266 43 180 210 207 166 175 196 158 170 189 171 182 232 229 225 248 251 251 231 247 296 254 177 206 218 188 167 151 142 207 260 229 225 235 241 253 263 271 289 279 270 271 264 248 224 209 212 228 232 232 321 273 257 234 260 278 288 301 307 313 322 323 305 236 183 161 155 148 150 157 159
205 209 188 170 169 189 204 220 201 204 227 215 195 196 183 187 196 197 201 210 7 193 197 232 213 205 194 170 166 202 182 211 250 237 241 229 234 292 289 190 224 222 178 150 188 157 169 257 237 225 244 251 257 267 272 272 266 263 264 264 260 244 217 217 232 234 221 237 253 263 278 274 279 290 294 298 308 316 312 305 231 161 147 145 148 155 164 166
198 247 257 172 187 200 185 169 171 187 210 207 202 214 194 191 206 212 156 110 275 234 191 226 239 214 198 181 165 182 187 188 233 237 220 206 205 210 230 233 251 231 154 151 218 174 163 255 251 228 254 260 255 261 264 261 265 267 262 256 255 250 234 229 239 237 224 236 251 263 275 277 277 279 282 291 308 308 304 325 112 144 149 153 161 168 174 176
184 219 213 113 161 205 168 133 149 173 199 193 208 225 194 193 209 213 148 160 199 217 175 222 241 207 194 195 186 214 216 193 209 228 183 177 222 212 212 212 174 107 148 164 199 209 190 255 309 214 278 271 250 251 258 258 263 268 268 259 246 245 244 238 243 241 229 239 250 256 269 274 271 270 275 288 305 314 308 323 156 172 167 165 173 179 182 184
212 260 170 142 172 187 173 145 146 166 192 182 197 206 189 207 206 195 212 203 196 181 178 206 224 178 176 198 206 231 234 213 223 225 180 177 204 200 215 209 148 141 181 190 180 172 188 253 4 43 317 283 263 272 283 289 283 271 273 268 246 228 232 232 230 222 214 227 242 250 256 258 261 274 288 283 291 317 281 260 229 210 189 178 184 189 190 191
208 282 179 143 202 195 173 160 171 190 201 189 195 195 195 212 196 173 215 227 207 202 192 189 181 133 150 203 217 231 236 224 227 221 181 177 198 189 207 196 161 155 168 181 189 160 164 177 47 63 296 280 292 328 321 322 317 284 265 257 226 199 213 235 245 231 214 210 216 223 231 243 259 302 297 287 309 314 276 242 218 219 207 197 200 197 195 196